DW6160 Weather Reports


Display with metric or nautical units.
time (UTC)temp
F
wind
direction
speed
MPH
gust
MPH
rain 1hr
in
rain 24hr
in
rain mn
in
humidity
%
barometer
mb
20180920224019 91 173 17.0 26.0 0.00 0.00 0.00 46 1006.9
20180920223527 92 192 17.0 26.0 0.00 0.00 0.00 46 1006.9
20180920223034 92 179 13.0 24.0 0.00 0.00 0.00 46 1006.9
20180920222525 92 197 15.0 24.0 0.00 0.00 0.00 46 1007.0
20180920222031 92 197 16.0 24.0 0.00 0.00 0.00 45 1007.0
20180920221524 92 191 14.0 22.0 0.00 0.00 0.00 45 1006.9
20180920221031 92 155 17.0 23.0 0.00 0.00 0.00 46 1006.9
20180920220519 92 197 16.0 24.0 0.00 0.00 0.00 46 1006.8
20180920220025 92 173 12.0 24.0 0.00 0.00 0.00 47 1006.8
20180920215534 92 200 16.0 23.0 0.00 0.00 0.00 47 1006.9
20180920215020 92 193 15.0 26.0 0.00 0.00 0.00 47 1006.9
20180920214529 93 194 16.0 26.0 0.00 0.00 0.00 46 1006.9
20180920214021 93 192 15.0 26.0 0.00 0.00 0.00 45 1007.0
20180920213529 93 182 15.0 23.0 0.00 0.00 0.00 46 1006.9
20180920213035 93 205 15.0 25.0 0.00 0.00 0.00 46 1007.0
20180920212527 93 165 15.0 25.0 0.00 0.00 0.00 47 1007.0
20180920212034 93 179 14.0 24.0 0.00 0.00 0.00 47 1007.0
20180920211521 92 197 15.0 24.0 0.00 0.00 0.00 47 1007.1
20180920211029 93 205 15.0 26.0 0.00 0.00 0.00 46 1007.1
20180920210538 93 188 15.0 26.0 0.00 0.00 0.00 46 1007.3
20180920210026 93 184 16.0 22.0 0.00 0.00 0.00 46 1007.4
20180920205521 93 188 17.0 22.0 0.00 0.00 0.00 46 1007.4
20180920205030 93 184 13.0 23.0 0.00 0.00 0.00 46 1007.4
20180920204520 93 182 17.0 23.0 0.00 0.00 0.00 46 1007.5
20180920204027 93 209 16.0 24.0 0.00 0.00 0.00 46 1007.6
20180920203536 93 178 15.0 24.0 0.00 0.00 0.00 46 1007.6
20180920203023 93 187 14.0 19.0 0.00 0.00 0.00 46 1007.7
20180920202532 93 154 13.0 24.0 0.00 0.00 0.00 46 1007.8
20180920202018 93 199 14.0 23.0 0.00 0.00 0.00 45 1007.8
20180920201526 93 188 13.0 23.0 0.00 0.00 0.00 47 1007.8
20180920201018 93 194 16.0 23.0 0.00 0.00 0.00 45 1007.9
20180920200530 93 209 15.0 23.0 0.00 0.00 0.00 46 1008.1
20180920200036 93 181 14.0 24.0 0.00 0.00 0.00 45 1008.1
20180920195526 93 196 14.0 24.0 0.00 0.00 0.00 47 1008.1
20180920195016 93 213 14.0 24.0 0.00 0.00 0.00 46 1008.2
20180920194526 93 184 17.0 24.0 0.00 0.00 0.00 46 1008.3
20180920194033 93 206 16.0 25.0 0.00 0.00 0.00 45 1008.3
20180920193524 93 177 16.0 25.0 0.00 0.00 0.00 45 1008.3
20180920193030 93 202 14.0 24.0 0.00 0.00 0.00 45 1008.5
20180920192524 93 202 14.0 29.0 0.00 0.00 0.00 47 1008.6
20180920192030 92 187 17.0 29.0 0.00 0.00 0.00 46 1008.5
20180920191518 92 177 16.0 23.0 0.00 0.00 0.00 47 1008.6
20180920191029 92 208 15.0 26.0 0.00 0.00 0.00 48 1008.8
20180920190537 92 193 15.0 28.0 0.00 0.00 0.00 49 1008.8
20180920190025 91 192 16.0 29.0 0.00 0.00 0.00 49 1008.9
20180920185533 91 198 18.0 25.0 0.00 0.00 0.00 49 1009.0
20180920185023 92 214 14.0 24.0 0.00 0.00 0.00 49 1009.0
20180920184532 91 206 15.0 24.0 0.00 0.00 0.00 50 1009.0
20180920184022 91 200 17.0 25.0 0.00 0.00 0.00 49 1009.2
20180920183531 91 207 16.0 25.0 0.00 0.00 0.00 51 1009.4
20180920183037 90 198 15.0 24.0 0.00 0.00 0.00 51 1009.4
20180920182526 90 211 17.0 24.0 0.00 0.00 0.00 51 1009.5
20180920182032 90 193 16.0 21.0 0.00 0.00 0.00 50 1009.4
20180920181522 91 207 15.0 22.0 0.00 0.00 0.00 49 1009.5
20180920181031 90 202 15.0 28.0 0.00 0.00 0.00 50 1009.5
20180920180517 90 209 17.0 28.0 0.00 0.00 0.00 50 1009.6
20180920180027 90 186 17.0 26.0 0.00 0.00 0.00 50 1009.6
20180920175520 90 212 13.0 24.0 0.00 0.00 0.00 51 1009.6
20180920175028 90 213 15.0 26.0 0.00 0.00 0.00 51 1009.6
20180920174538 90 209 16.0 26.0 0.00 0.00 0.00 51 1009.6
20180920174021 90 228 14.0 26.0 0.00 0.00 0.00 51 1009.7
20180920173530 90 222 17.0 26.0 0.00 0.00 0.00 50 1009.7
20180920173037 89 219 15.0 26.0 0.00 0.00 0.00 52 1009.8
20180920172526 89 199 12.0 26.0 0.00 0.00 0.00 53 1009.7
20180920172033 89 197 15.0 24.0 0.00 0.00 0.00 53 1009.8
20180920171519 88 223 18.0 24.0 0.00 0.00 0.00 52 1010.0
20180920171029 88 214 15.0 25.0 0.00 0.00 0.00 54 1009.9
20180920170522 88 211 16.0 25.0 0.00 0.00 0.00 56 1010.1
20180920170029 88 189 15.0 24.0 0.00 0.00 0.00 56 1010.1
20180920165537 87 209 16.0 25.0 0.00 0.00 0.00 56 1010.3
20180920165024 87 195 16.0 21.0 0.00 0.00 0.00 57 1010.3
20180920164533 87 213 14.0 22.0 0.00 0.00 0.00 57 1010.5
20180920164023 87 196 16.0 22.0 0.00 0.00 0.00 58 1010.5
20180920163532 87 227 16.0 22.0 0.00 0.00 0.00 57 1010.6
20180920163037 87 213 15.0 21.0 0.00 0.00 0.00 59 1010.5
20180920162528 86 200 16.0 22.0 0.00 0.00 0.00 58 1010.6
20180920162019 86 212 16.0 24.0 0.00 0.00 0.00 58 1010.6
20180920161530 86 213 15.0 24.0 0.00 0.00 0.00 60 1010.6
20180920161018 86 222 15.0 23.0 0.00 0.00 0.00 59 1010.7
20180920160526 86 198 15.0 23.0 0.00 0.00 0.00 61 1010.6
20180920160032 85 194 12.0 19.0 0.00 0.00 0.00 61 1010.7
20180920155523 85 208 15.0 19.0 0.00 0.00 0.00 61 1010.9
20180920155030 85 190 13.0 21.0 0.00 0.00 0.00 62 1010.9
20180920154522 84 226 13.0 21.0 0.00 0.00 0.00 63 1010.8
20180920154029 84 186 13.0 22.0 0.00 0.00 0.00 63 1011.0
20180920153523 84 221 15.0 22.0 0.00 0.00 0.00 63 1011.0
20180920153032 84 192 12.0 20.0 0.00 0.00 0.00 64 1011.0
20180920152522 83 201 12.0 17.0 0.00 0.00 0.00 65 1011.1
20180920152028 83 208 12.0 21.0 0.00 0.00 0.00 65 1011.1
20180920151521 83 210 12.0 21.0 0.00 0.00 0.00 65 1011.1
20180920151028 83 196 11.0 18.0 0.00 0.00 0.00 66 1011.1
20180920150538 82 186 11.0 17.0 0.00 0.00 0.00 67 1011.1
20180920150024 82 208 9.0 17.0 0.00 0.00 0.00 68 1011.1
20180920145533 81 186 13.0 17.0 0.00 0.00 0.00 67 1011.1
20180920145024 81 209 11.0 18.0 0.00 0.00 0.00 69 1011.1
20180920144535 81 188 10.0 17.0 0.00 0.00 0.00 69 1011.1
20180920144023 80 207 11.0 15.0 0.00 0.00 0.00 70 1011.1
20180920143531 80 209 10.0 15.0 0.00 0.00 0.00 71 1011.1
20180920143019 80 188 10.0 16.0 0.00 0.00 0.00 72 1011.1
20180920142528 79 215 11.0 16.0 0.00 0.00 0.00 72 1011.1
20180920142037 79 209 12.0 16.0 0.00 0.00 0.00 73 1011.1
20180920141015 78 207 10.0 16.0 0.00 0.00 0.00 74 1011.2
20180920140527 78 178 10.0 16.0 0.00 0.00 0.00 75 1011.1
20180920140033 78 211 8.0 14.0 0.00 0.00 0.00 76 1011.2
20180920135523 77 183 9.0 14.0 0.00 0.00 0.00 77 1011.1
20180920135031 77 205 8.0 13.0 0.00 0.00 0.00 77 1011.1
20180920134520 76 209 8.0 12.0 0.00 0.00 0.00 78 1011.1
20180920134026 76 191 7.0 12.0 0.00 0.00 0.00 79 1011.1
20180920133535 75 201 8.0 12.0 0.00 0.00 0.00 79 1011.1
20180920133025 75 173 9.0 12.0 0.00 0.00 0.00 80 1011.1
20180920132534 75 194 7.0 12.0 0.00 0.00 0.00 81 1011.1
20180920132024 74 165 7.0 12.0 0.00 0.00 0.00 81 1011.1
20180920131535 74 202 7.0 11.0 0.00 0.00 0.00 82 1011.1
20180920131021 74 206 7.0 11.0 0.00 0.00 0.00 82 1011.1
20180920130529 74 180 8.0 11.0 0.00 0.00 0.00 82 1011.0
20180920130035 73 182 7.0 12.0 0.00 0.00 0.00 82 1011.0
20180920125525 73 207 7.0 12.0 0.00 0.00 0.00 82 1011.0
20180920125036 73 174 6.0 9.0 0.00 0.00 0.00 83 1011.0
20180920124525 73 186 3.0 9.0 0.00 0.00 0.00 83 1010.9
20180920124031 73 174 5.0 9.0 0.00 0.00 0.00 83 1010.9
20180920123522 73 198 5.0 8.0 0.00 0.00 0.00 82 1010.9
20180920123031 73 196 4.0 8.0 0.00 0.00 0.00 82 1010.8
20180920122520 73 173 4.0 7.0 0.00 0.00 0.00 82 1010.8
20180920122030 73 203 4.0 8.0 0.00 0.00 0.00 82 1010.7
20180920121518 73 185 5.0 11.0 0.00 0.00 0.00 82 1010.5
20180920121026 73 182 4.0 11.0 0.00 0.00 0.00 82 1010.4
20180920120538 73 183 5.0 11.0 0.00 0.00 0.00 82 1010.3
20180920120025 73 171 4.0 8.0 0.00 0.00 0.00 82 1010.4
20180920115521 73 175 4.0 7.0 0.00 0.00 0.00 82 1010.4
20180920115026 73 184 3.0 8.0 0.00 0.00 0.00 82 1010.4
20180920114534 73 178 3.0 8.0 0.00 0.00 0.00 82 1010.4
20180920114023 73 182 3.0 10.0 0.00 0.00 0.00 82 1010.4
20180920113533 73 178 6.0 10.0 0.00 0.00 0.00 82 1010.3
20180920113020 73 188 5.0 9.0 0.00 0.00 0.00 81 1010.3
20180920112530 74 166 6.0 11.0 0.00 0.00 0.00 81 1010.3
20180920112018 74 171 5.0 11.0 0.00 0.00 0.00 81 1010.2
20180920111526 74 178 7.0 11.0 0.00 0.00 0.00 80 1010.3
20180920111017 74 190 6.0 11.0 0.00 0.00 0.00 80 1010.2
20180920110529 74 185 6.0 11.0 0.00 0.00 0.00 79 1010.1
20180920110036 74 178 6.0 12.0 0.00 0.00 0.00 79 1010.1
20180920105525 74 182 5.0 10.0 0.00 0.00 0.00 79 1010.1
20180920105030 74 196 4.0 9.0 0.00 0.00 0.00 79 1010.1
20180920104538 75 169 5.0 12.0 0.00 0.00 0.00 79 1010.2
20180920104025 75 185 4.0 12.0 0.00 0.00 0.00 79 1010.1
20180920103535 75 186 4.0 9.0 0.00 0.00 0.00 79 1010.1
20180920103021 75 194 4.0 12.0 0.00 0.00 0.00 78 1010.1
20180920102533 75 175 4.0 9.0 0.00 0.00 0.00 78 1010.1
20180920102023 75 194 4.0 9.0 0.00 0.00 0.00 78 1010.1
20180920101532 75 188 3.0 10.0 0.00 0.00 0.00 78 1010.1
20180920101020 75 178 5.0 10.0 0.00 0.00 0.00 77 1010.0
20180920100526 75 182 6.0 11.0 0.00 0.00 0.00 77 1010.1
20180920100033 75 188 7.0 12.0 0.00 0.00 0.00 77 1010.1
20180920095523 75 184 4.0 8.0 0.00 0.00 0.00 77 1010.2
20180920095032 76 202 4.0 8.0 0.00 0.00 0.00 77 1010.1
20180920094519 76 201 4.0 10.0 0.00 0.00 0.00 77 1010.1
20180920094023 76 174 5.0 14.0 0.00 0.00 0.00 76 1010.1
20180920093530 76 199 7.0 14.0 0.00 0.00 0.00 76 1010.1
20180920093035 76 186 7.0 14.0 0.00 0.00 0.00 76 1010.1
20180920092523 76 198 8.0 14.0 0.00 0.00 0.00 76 1010.1
20180920092027 76 186 8.0 15.0 0.00 0.00 0.00 76 1010.2
20180920091536 76 207 8.0 15.0 0.00 0.00 0.00 76 1010.2
20180920091023 76 184 10.0 14.0 0.00 0.00 0.00 76 1010.2
20180920090533 76 182 9.0 16.0 0.00 0.00 0.00 76 1010.2
20180920090020 76 213 9.0 16.0 0.00 0.00 0.00 76 1010.3
20180920085530 76 173 8.0 16.0 0.00 0.00 0.00 76 1010.3
20180920085022 76 208 8.0 16.0 0.00 0.00 0.00 76 1010.3
20180920084535 76 196 9.0 15.0 0.00 0.00 0.00 76 1010.2
20180920084022 77 198 9.0 15.0 0.00 0.00 0.00 75 1010.2
20180920083531 77 169 10.0 14.0 0.00 0.00 0.00 76 1010.2
20180920083019 77 169 8.0 15.0 0.00 0.00 0.00 76 1010.3
20180920082529 77 181 8.0 18.0 0.00 0.00 0.00 75 1010.2
20180920082035 77 192 11.0 18.0 0.00 0.00 0.00 75 1010.3
20180920081523 77 175 8.0 15.0 0.00 0.00 0.00 75 1010.3
20180920081030 77 195 9.0 15.0 0.00 0.00 0.00 75 1010.3
20180920080523 77 208 9.0 17.0 0.00 0.00 0.00 74 1010.4
20180920080029 77 185 11.0 18.0 0.00 0.00 0.00 74 1010.3
20180920075537 77 213 10.0 16.0 0.00 0.00 0.00 74 1010.4
20180920075023 77 194 8.0 14.0 0.00 0.00 0.00 74 1010.4
20180920074533 77 194 8.0 14.0 0.00 0.00 0.00 73 1010.4
20180920074019 77 202 8.0 14.0 0.00 0.00 0.00 73 1010.4
20180920073528 77 173 10.0 14.0 0.00 0.00 0.00 73 1010.4
20180920073034 77 183 9.0 13.0 0.00 0.00 0.00 73 1010.4
20180920072521 77 178 6.0 17.0 0.00 0.00 0.00 73 1010.4
20180920072027 77 187 10.0 15.0 0.00 0.00 0.00 73 1010.4
20180920071519 77 182 9.0 14.0 0.00 0.00 0.00 73 1010.4
20180920071026 77 174 10.0 14.0 0.00 0.00 0.00 73 1010.4
20180920070533 77 179 9.0 13.0 0.00 0.00 0.00 73 1010.3
20180920070020 77 182 8.0 13.0 0.00 0.00 0.00 73 1010.4
20180920065528 78 182 9.0 13.0 0.00 0.00 0.00 73 1010.5
20180920065036 78 174 8.0 15.0 0.00 0.00 0.00 72 1010.5
20180920064524 78 179 9.0 15.0 0.00 0.00 0.00 72 1010.5
20180920064036 78 180 9.0 16.0 0.00 0.00 0.00 72 1010.6
20180920063524 78 177 10.0 16.0 0.00 0.00 0.00 72 1010.7
20180920063017 78 186 9.0 15.0 0.00 0.00 0.00 72 1010.7
20180920062527 78 169 9.0 15.0 0.00 0.00 0.00 72 1010.7
20180920062035 78 191 8.0 15.0 0.00 0.00 0.00 72 1010.7
20180920061523 78 176 9.0 17.0 0.00 0.00 0.00 71 1010.7
20180920061031 78 163 8.0 15.0 0.00 0.00 0.00 71 1010.7
20180920060523 79 178 11.0 15.0 0.00 0.00 0.00 71 1010.8
20180920060031 78 161 8.0 13.0 0.00 0.00 0.00 71 1010.8
20180920055537 78 184 7.0 13.0 0.00 0.00 0.00 71 1010.8
20180920055024 79 166 8.0 14.0 0.00 0.00 0.00 71 1010.8
20180920054536 79 186 8.0 14.0 0.00 0.00 0.00 71 1010.8
20180920054025 79 159 8.0 14.0 0.00 0.00 0.00 71 1010.8
20180920053532 79 161 7.0 13.0 0.00 0.00 0.00 70 1010.9
20180920053018 79 190 7.0 13.0 0.00 0.00 0.00 70 1010.9
20180920052528 79 163 7.0 14.0 0.00 0.00 0.00 70 1010.9
20180920052036 79 173 9.0 14.0 0.00 0.00 0.00 69 1010.8
20180920051526 79 154 8.0 14.0 0.00 0.00 0.00 69 1010.8
20180920051032 79 164 7.0 14.0 0.00 0.00 0.00 69 1010.8
20180920050520 80 193 8.0 14.0 0.00 0.00 0.00 69 1010.8
20180920050031 80 166 9.0 14.0 0.00 0.00 0.00 69 1010.8
20180920045523 80 175 8.0 14.0 0.00 0.00 0.00 68 1010.8
20180920045031 80 168 8.0 14.0 0.00 0.00 0.00 68 1010.8
20180920044522 80 179 8.0 13.0 0.00 0.00 0.00 67 1010.8
20180920044028 80 178 7.0 14.0 0.00 0.00 0.00 67 1010.8
20180920043518 80 163 8.0 14.0 0.00 0.00 0.00 67 1010.7
20180920043026 80 182 8.0 13.0 0.00 0.00 0.00 67 1010.7
20180920042531 80 163 8.0 16.0 0.00 0.00 0.00 67 1010.7
20180920042024 80 148 8.0 16.0 0.00 0.00 0.00 66 1010.7
20180920041545 81 184 8.0 14.0 0.00 0.00 0.00 66 1010.7
20180920041025 81 168 7.0 14.0 0.00 0.00 0.00 66 1010.7
20180920040535 81 188 8.0 14.0 0.00 0.00 0.00 65 1010.7
20180920040022 81 170 9.0 16.0 0.00 0.00 0.00 65 1010.6
20180920035530 81 163 8.0 16.0 0.00 0.00 0.00 65 1010.6
20180920035032 81 176 7.0 13.0 0.00 0.00 0.00 65 1010.6
20180920034521 81 184 9.0 14.0 0.00 0.00 0.00 64 1010.6
20180920034027 81 155 8.0 13.0 0.00 0.00 0.00 64 1010.6
20180920033534 81 165 7.0 13.0 0.00 0.00 0.00 64 1010.6
20180920033024 81 164 8.0 13.0 0.00 0.00 0.00 64 1010.5
20180920032520 81 175 5.0 13.0 0.00 0.00 0.00 64 1010.5
20180920032028 81 171 7.0 13.0 0.00 0.00 0.00 64 1010.5
20180920031537 81 173 7.0 12.0 0.00 0.00 0.00 64 1010.4
20180920031024 81 180 8.0 12.0 0.00 0.00 0.00 64 1010.4
20180920030530 81 150 6.0 12.0 0.00 0.00 0.00 64 1010.4
20180920030021 81 155 7.0 12.0 0.00 0.00 0.00 64 1010.3
20180920025527 82 173 7.0 12.0 0.00 0.00 0.00 63 1010.2
20180920025034 82 150 7.0 12.0 0.00 0.00 0.00 63 1010.2
20180920024523 82 161 6.0 12.0 0.00 0.00 0.00 63 1010.1
20180920024018 82 172 6.0 15.0 0.00 0.00 0.00 63 1010.1
20180920023528 82 166 7.0 15.0 0.00 0.00 0.00 63 1010.0
20180920023035 82 136 6.0 10.0 0.00 0.00 0.00 63 1010.0
20180920022523 82 154 7.0 13.0 0.00 0.00 0.00 63 1009.9
20180920022032 82 148 5.0 11.0 0.00 0.00 0.00 63 1009.8
20180920021524 82 148 6.0 11.0 0.00 0.00 0.00 63 1009.7
20180920021034 82 150 6.0 11.0 0.00 0.00 0.00 63 1009.8
20180920020521 82 161 5.0 9.0 0.00 0.00 0.00 63 1009.7
20180920020027 82 136 6.0 9.0 0.00 0.00 0.00 62 1009.7
20180920015528 82 171 4.0 9.0 0.00 0.00 0.00 62 1009.5
20180920015037 82 150 5.0 9.0 0.00 0.00 0.00 61 1009.6
20180920014526 82 142 3.0 8.0 0.00 0.00 0.00 60 1009.4
20180920014033 83 148 4.0 9.0 0.00 0.00 0.00 60 1009.4
20180920013522 83 152 5.0 10.0 0.00 0.00 0.00 59 1009.2
20180920013026 83 169 7.0 10.0 0.00 0.00 0.00 59 1009.2
20180920012532 83 146 4.0 10.0 0.00 0.00 0.00 59 1009.2
20180920012020 84 164 5.0 10.0 0.00 0.00 0.00 58 1009.1
20180920011529 84 155 7.0 10.0 0.00 0.00 0.00 58 1009.0
20180920011036 84 175 6.0 10.0 0.00 0.00 0.00 58 1009.1
20180920010529 84 159 6.0 10.0 0.00 0.00 0.00 57 1009.0
20180920010019 84 180 6.0 10.0 0.00 0.00 0.00 57 1008.9
20180920005529 85 170 5.0 13.0 0.00 0.00 0.00 56 1008.8
20180920005017 85 140 8.0 13.0 0.00 0.00 0.00 56 1008.7
20180920004526 85 161 7.0 11.0 0.00 0.00 0.00 56 1008.7
20180920004032 85 161 7.0 11.0 0.00 0.00 0.00 56 1008.8
20180920003521 86 148 6.0 11.0 0.00 0.00 0.00 56 1008.8
20180920003028 86 171 7.0 14.0 0.00 0.00 0.00 55 1008.8
20180920002530 86 175 7.0 14.0 0.00 0.00 0.00 55 1008.7
20180920002023 87 155 7.0 14.0 0.00 0.00 0.00 54 1008.7
20180920001532 87 160 7.0 14.0 0.00 0.00 0.00 53 1008.6
20180920001020 87 152 9.0 15.0 0.00 0.00 0.00 53 1008.5
20180920000528 88 177 10.0 17.0 0.00 0.00 0.00 52 1008.5
20180920000036 88 154 10.0 17.0 0.00 0.00 0.00 51 1008.5
20180919235525 88 155 10.0 17.0 0.00 0.00 0.00 51 1008.6
20180919235030 89 176 10.0 17.0 0.00 0.00 0.00 51 1008.6
20180919234522 89 167 8.0 20.0 0.00 0.00 0.00 51 1008.5
20180919234028 89 169 10.0 20.0 0.00 0.00 0.00 51 1008.5
20180919233521 89 168 11.0 17.0 0.00 0.00 0.00 50 1008.5
20180919233028 90 192 9.0 18.0 0.00 0.00 0.00 50 1008.5
20180919232520 90 171 11.0 19.0 0.00 0.00 0.00 49 1008.5
20180919232031 90 173 11.0 17.0 0.00 0.00 0.00 49 1008.5
20180919231523 90 177 8.0 22.0 0.00 0.00 0.00 48 1008.5
20180919231028 90 194 14.0 20.0 0.00 0.00 0.00 47 1008.5
20180919230536 91 183 12.0 19.0 0.00 0.00 0.00 47 1008.5
20180919230024 91 164 10.0 19.0 0.00 0.00 0.00 48 1008.5
20180919225533 91 194 12.0 19.0 0.00 0.00 0.00 47 1008.5
20180919225024 92 186 10.0 19.0 0.00 0.00 0.00 47 1008.5
20180919224533 92 177 12.0 18.0 0.00 0.00 0.00 47 1008.5